Weather History for Centerville, IA

Change the Weather History Date:

Sunday, October 20, 2013

  Actual Average Record
Temperature  
Mean Temperature 50 °F -  
Max Temperature 62 °F 63 °F 85 °F (1979)
Min Temperature 37 °F 41 °F 18 °F (1960)
Degree Days  
Heating Degree Days 16    
Moisture  
Dew Point 40 °F    
Average Humidity 67    
Maximum Humidity 100    
Minimum Humidity 42    
Precipitation  
Precipitation 0.00 in - - ()
Sea Level Pressure  
Sea Level Pressure 29.82 in    
Wind  
Wind Speed 4 mph (SW)    
Max Wind Speed 18 mph    
Max Gust Speed 22 mph    
Visibility 10 miles    
Events      
Averages and records for this station are not official NWS values.
T = Trace of Precipitation, MM = Missing Value Source: NWS Daily Summary

Daily Weather History Graph

Daily Weather History Graph

Search for Another Location

Airport:

Trip Planner

Search our weather history database for the weather conditions in past years. The results will help you decide how hot, cold, wet, or windy it might be!

Date:

Astronomy

Oct. 20, 2013 Rise Set
Actual Time 7:28 AM CDT 6:23 PM CDT
Civil Twilight 7:00 AM CDT 6:51 PM CDT
Nautical Twilight 6:28 AM CDT 7:23 PM CDT
Astronomical Twilight 5:57 AM CDT 7:54 PM CDT
Moon 7:31 PM CDT (10/20) 9:07 AM CDT (10/20)
Length of Visible Light 11h 50m
Length of Day
10h 55m
Full, 97% of the Moon is Illuminated
Oct 20
Full
Oct 26
Last Quarter
Nov 3
New
Nov 9
First Quarter
Nov 17
Full

Hourly Weather History & Observations

Time (CDT) Temp. Windchill Dew Point Humidity Pressure Visibility Wind Dir Wind Speed Gust Speed Precip Events Conditions
12:15 AM 41.0 °F - 33.8 °F 76% 29.87 in 10.0 mi Calm Calm - N/A   Clear
12:35 AM 41.0 °F - 33.8 °F 76% 29.87 in 10.0 mi Calm Calm - N/A   Scattered Clouds
12:55 AM 41.0 °F - 33.8 °F 76% 29.86 in 10.0 mi Calm Calm - N/A   Scattered Clouds
1:15 AM 39.2 °F - 32.0 °F 75% 29.86 in 10.0 mi Calm Calm - N/A   Clear
1:35 AM 39.2 °F - 33.8 °F 81% 29.86 in 10.0 mi Calm Calm - N/A   Clear
1:55 AM 41.0 °F - 33.8 °F 76% 29.85 in 10.0 mi Calm Calm - N/A   Clear
2:15 AM 39.2 °F - 33.8 °F 81% 29.85 in 10.0 mi Calm Calm - N/A   Clear
2:35 AM 39.2 °F - 33.8 °F 81% 29.85 in 10.0 mi Calm Calm - N/A   Clear
2:55 AM 37.4 °F - 33.8 °F 87% 29.84 in 10.0 mi Calm Calm - N/A   Clear
3:15 AM 39.2 °F 35.0 °F 35.6 °F 87% 29.83 in 10.0 mi SSE 5.8 mph - N/A   Clear
3:35 AM 41.0 °F - 37.4 °F 87% 29.83 in 10.0 mi Calm Calm - N/A   Clear
3:55 AM 41.0 °F - 37.4 °F 87% 29.82 in 10.0 mi Calm Calm - N/A   Clear
4:15 AM 41.0 °F - 37.4 °F 87% 29.82 in 10.0 mi Calm Calm - N/A   Clear
4:35 AM 39.2 °F - 37.4 °F 93% 29.82 in 10.0 mi Calm Calm - N/A   Clear
4:55 AM 39.2 °F - 37.4 °F 93% 29.81 in 10.0 mi Calm Calm - N/A   Clear
5:15 AM 41.0 °F - 37.4 °F 87% 29.81 in 10.0 mi Calm Calm - N/A   Clear
5:35 AM 41.0 °F - 37.4 °F 87% 29.81 in 10.0 mi Calm Calm - N/A   Clear
5:55 AM 41.0 °F - 39.2 °F 93% 29.80 in 10.0 mi Calm Calm - N/A   Clear
6:15 AM 41.0 °F - 39.2 °F 93% 29.80 in 10.0 mi Calm Calm - N/A   Clear
6:35 AM 39.2 °F - 37.4 °F 93% 29.80 in 10.0 mi Calm Calm - N/A   Clear
6:55 AM 39.2 °F 34.2 °F 39.2 °F 100% 29.80 in 10.0 mi SSE 6.9 mph - N/A   Clear
7:15 AM 41.0 °F 36.4 °F 39.2 °F 93% 29.79 in 10.0 mi South 6.9 mph - N/A   Clear
7:35 AM 42.8 °F 38.6 °F 39.2 °F 87% 29.79 in 10.0 mi South 6.9 mph - N/A   Clear
7:55 AM 44.6 °F 40.2 °F 41.0 °F 87% 29.79 in 10.0 mi South 8.1 mph - N/A   Clear
8:15 AM 44.6 °F 40.2 °F 41.0 °F 87% 29.79 in 10.0 mi South 8.1 mph - N/A   Clear
8:35 AM 46.4 °F 41.9 °F 41.0 °F 81% 29.79 in 10.0 mi South 9.2 mph - N/A   Clear
8:55 AM 48.2 °F - 41.0 °F 76% 29.79 in 10.0 mi South 11.5 mph - N/A   Clear
9:15 AM 50.0 °F - 41.0 °F 71% 29.79 in 10.0 mi South 15.0 mph - N/A   Partly Cloudy
9:35 AM 50.0 °F - 41.0 °F 71% 29.79 in 10.0 mi SSW 12.7 mph - N/A   Partly Cloudy
9:55 AM 51.8 °F - 41.0 °F 67% 29.79 in 10.0 mi SSW 11.5 mph - N/A   Clear
10:15 AM 53.6 °F - 41.0 °F 62% 29.78 in 10.0 mi SSW 12.7 mph - N/A   Clear
10:35 AM 53.6 °F - 41.0 °F 62% 29.79 in 10.0 mi SSW 13.8 mph - N/A   Clear
10:55 AM 53.6 °F - 41.0 °F 62% 29.78 in 10.0 mi South 13.8 mph - N/A   Clear
11:15 AM 55.4 °F - 41.0 °F 58% 29.78 in 10.0 mi SSW 15.0 mph - N/A   Clear
11:35 AM 57.2 °F - 41.0 °F 55% 29.77 in 10.0 mi South 16.1 mph - N/A   Clear
11:55 AM 57.2 °F - 41.0 °F 55% 29.78 in 10.0 mi SSW 15.0 mph - N/A   Clear
12:15 PM 59.0 °F - 41.0 °F 51% 29.78 in 10.0 mi SSW 15.0 mph - N/A   Clear
12:35 PM 59.0 °F - 41.0 °F 51% 29.78 in 10.0 mi SW 16.1 mph 19.6 mph N/A   Clear
12:55 PM 60.8 °F - 41.0 °F 48% 29.78 in 10.0 mi SW 16.1 mph - N/A   Clear
1:15 PM 62.6 °F - 41.0 °F 45% 29.78 in 10.0 mi SW 18.4 mph - N/A   Clear
1:35 PM 59.0 °F - 41.0 °F 51% 29.80 in 10.0 mi WSW 16.1 mph 21.9 mph N/A   Clear
1:55 PM 59.0 °F - 41.0 °F 51% 29.78 in 10.0 mi WSW 6.9 mph - N/A   Clear
2:15 PM 62.6 °F - 41.0 °F 45% 29.76 in 10.0 mi Calm Calm - N/A   Clear
2:35 PM 62.6 °F - 39.2 °F 42% 29.76 in 10.0 mi WSW 6.9 mph - N/A   Scattered Clouds
2:55 PM 62.6 °F - 41.0 °F 45% 29.78 in 10.0 mi SW 10.4 mph - N/A   Partly Cloudy
3:15 PM 62.6 °F - 41.0 °F 45% 29.78 in 10.0 mi West 9.2 mph - N/A   Clear
3:35 PM 62.6 °F - 41.0 °F 45% 29.77 in 10.0 mi SW 9.2 mph - N/A   Partly Cloudy
3:55 PM 62.6 °F - 41.0 °F 45% 29.78 in 10.0 mi SW 10.4 mph - N/A   Clear
4:15 PM 62.6 °F - 41.0 °F 45% 29.79 in 10.0 mi SW 11.5 mph - N/A   Clear
4:35 PM 62.6 °F - 41.0 °F 45% 29.79 in 10.0 mi SW 9.2 mph - N/A   Clear
4:55 PM 62.6 °F - 41.0 °F 45% 29.79 in 10.0 mi SW 9.2 mph - N/A   Clear
5:15 PM 62.6 °F - 41.0 °F 45% 29.79 in 10.0 mi SW 8.1 mph - N/A   Clear
5:35 PM 62.6 °F - 41.0 °F 45% 29.79 in 10.0 mi SW 3.5 mph - N/A   Clear
5:55 PM 59.0 °F - 42.8 °F 55% 29.80 in 10.0 mi Calm Calm - N/A   Partly Cloudy
6:15 PM 59.0 °F - 42.8 °F 55% 29.80 in 10.0 mi Calm Calm - N/A   Partly Cloudy
6:35 PM 57.2 °F - 42.8 °F 59% 29.81 in 10.0 mi Calm Calm - N/A   Mostly Cloudy
6:55 PM 57.2 °F - 42.8 °F 59% 29.82 in 10.0 mi Calm Calm - N/A   Mostly Cloudy
7:15 PM 57.2 °F - 42.8 °F 59% 29.83 in 10.0 mi Calm Calm - N/A   Scattered Clouds
7:35 PM 57.2 °F - 41.0 °F 55% 29.84 in 10.0 mi West 5.8 mph - N/A   Scattered Clouds
7:55 PM 57.2 °F - 42.8 °F 59% 29.84 in 10.0 mi WSW 5.8 mph - N/A   Mostly Cloudy
8:15 PM 57.2 °F - 42.8 °F 59% 29.85 in 10.0 mi Calm Calm - N/A   Overcast
8:35 PM 57.2 °F - 42.8 °F 59% 29.85 in 10.0 mi WSW 3.5 mph - N/A   Overcast
8:55 PM 57.2 °F - 41.0 °F 55% 29.86 in 10.0 mi Calm Calm - N/A   Scattered Clouds
9:15 PM 55.4 °F - 42.8 °F 63% 29.87 in 10.0 mi Calm Calm - N/A   Clear
9:35 PM 55.4 °F - 41.0 °F 58% 29.88 in 10.0 mi WNW 8.1 mph - N/A   Clear
9:55 PM 55.4 °F - 41.0 °F 58% 29.88 in 10.0 mi WNW 9.2 mph 16.1 mph N/A   Clear
10:15 PM 55.4 °F - 39.2 °F 54% 29.89 in 10.0 mi NW 13.8 mph 18.4 mph N/A   Clear
10:35 PM 53.6 °F - 39.2 °F 58% 29.90 in 10.0 mi NW 10.4 mph - N/A   Scattered Clouds
10:55 PM 53.6 °F - 39.2 °F 58% 29.91 in 10.0 mi NW 8.1 mph - N/A   Partly Cloudy
11:15 PM 50.0 °F - 39.2 °F 66% 29.91 in 10.0 mi WNW 12.7 mph - N/A   Clear
11:35 PM 50.0 °F - 39.2 °F 66% 29.91 in 10.0 mi NW 10.4 mph - N/A   Clear
11:55 PM 46.4 °F 42.9 °F 39.2 °F 76% 29.92 in 10.0 mi WNW 6.9 mph - N/A   Clear